Location: ???????
(55.3754°N, 39.3545°E)
Time: 15:44:29
(UTC+00:00)

Okean-O - Pass Details

Date: 14 April 2026
Orbit: 627 x 629 km, 97.9° (Epoch: 17 May)

Event Time Altitude Azimuth Distance (km) Brightness Sun altitude
Exits shadow 18:05:40 13° 169° (S) 1,817 4.5 -13.2°
Maximum altitude 18:09:34 78° 255° (WSW) 651 2.7 -13.6°
Drops below altitude 10° 18:13:59 10° 343° (NNW) 2,023 6.1 -14.1°
Sets 18:16:12 0° 345° (NNW) 2,935 7.1 -14.3°
